Hourly Data Report for October 22, 2015

All times are specified in Local Standard Time (LST). Add 1 hour to adjust for Daylight Saving Time where and when it is observed.

PENTICTON A
BRITISH COLUMBIA

49°27'45.000" N
119°36'08.000" W
344.40 m
1126146
71889
YYF

Download Data

Hourly Data (October 2015)
Hourly Data Report for October 22, 2015
Temp Definition
°C
Dew Point Temp Definition
°C
Rel Hum Definition
%
Wind Dir Definition
10's deg

Wind Spd Definition
km/h
Visibility Definition
km
Stn Press Definition
kPa
Hmdx Definition


Wind Chill Definition


Weather Definition


TIME
00:00 Legend Double Dagger 7.2 5.4 88 33 10 24.1 97.82     LegendNANA
01:00 Legend Double Dagger 7.4 4.9 84 33 8 24.1 97.91     Mostly Cloudy
02:00 Legend Double Dagger 7.5 4.8 83 23 10 24.1 97.92     LegendNANA
03:00 Legend Double Dagger 4.6 3.3 91 3 8 24.1 97.92     LegendNANA
04:00 Legend Double Dagger 4.9 3.3 89 36 3 24.1 97.96     Clear
05:00 Legend Double Dagger 2.8 2.1 95 36 1 24.1 97.98     LegendNANA
06:00 Legend Double Dagger 1.4 -0.1 90 36 3 24.1 98.05     LegendNANA
07:00 Legend Double Dagger 1.1 -0.5 89 36 2 24.1 98.08     Clear
08:00 Legend Double Dagger 5.3 3.3 87 0 1 24.1 98.10     LegendNANA
09:00 Legend Double Dagger 9.9 4.7 70 36 2 24.1 98.12     LegendNANA
10:00 Legend Double Dagger 12.8 2.7 50 7 5 24.1 98.09     Mainly Clear
11:00 Legend Double Dagger 15.2 2.1 41 2 8 24.1 98.06     LegendNANA
12:00 Legend Double Dagger 15.4 3.0 43 34 12 24.1 98.02     LegendNANA
13:00 Legend Double Dagger 17.0 1.5 35 35 11 24.1 97.98     Mainly Clear
14:00 Legend Double Dagger 17.3 1.0 33 34 11 24.1 97.94     LegendNANA
15:00 Legend Double Dagger 17.5 1.2 33 32 5 24.1 97.94     LegendNANA
16:00 Legend Double Dagger 14.3 1.0 40 29 6 24.1 97.94     Clear
17:00 Legend Double Dagger 10.2 1.6 55 36 6 24.1 97.98     LegendNANA
18:00 Legend Double Dagger 10.7 1.6 53 36 10 24.1 98.04     LegendNANA
19:00 Legend Double Dagger 5.5 0.7 71 32 5 24.1 98.10     Mainly Clear
20:00 Legend Double Dagger 7.0 0.2 62 35 13 24.1 98.13     LegendNANA
21:00 Legend Double Dagger 5.7 -0.6 64 34 12 24.1 98.17     LegendNANA
22:00 Legend Double Dagger 4.2 -1.0 69 35 13 24.1 98.19     Mainly Clear
23:00 Legend Double Dagger 4.7 -1.3 65 36 5 24.1 98.22     LegendNANA

Notes on Data Quality.

Legend

  • E = Estimated
  • M = Missing
  • NA = Not Available
  • ‡ = Partner data that is not subject to review by the National Climate Archives
Date modified: